Погода в Очеретоватом

Украина / Запорожская область     47°20′15″N   35°56′30″E
темп.,
°C
ветер,
м/с
пор.,
м/с
влажн.,
%
обл.,
%
осадки,
мм/ч
давл.,
гПа
погр.,
м
27 октября, ср
ср2700:00+2вюв35645 0.0 103178
03:00+2вюв36632 0.0 103091
06:00+1вюв35640 0.0 102975
09:00+4вюв46530 0.0 1029236
12:00+10ююв33320 0.0 1028732
15:00+12ююз22290 0.0 1025938
18:00+7ю11410 0.0 102512
21:00+4юз22630 0.0 102611
28 октября, чт
чт2800:00+3сз22750 0.0 102610
03:00+3ссз22630 0.0 102510
06:00+3с22621 0.0 102510
09:00+6ссз2256100 0.0 1026120
12:00+11зсз3451100 0.0 1025620
15:00+12зсз345031 0.0 1024872
18:00+8сз226462 0.0 102415
21:00+9зюз2360100 0.0 102465
29 октября, пт
пт2900:00+9зюз3456100 0.0 1024101
03:00+9сз2366100 0.0 102451
06:00+8с348531 0.0 102547
09:00+10ссв368075 0.0 1026233
12:00+12св4565100 0.0 1026555
15:00+13св445283 0.0 10261356
18:00+11всв455542 0.0 1027127
21:00+8всв45645 0.0 102965
30 октября, сб
сб3000:00+10всв3657100 0.0 1029109
03:00+8в48854 0.0 1030151
06:00+6в49880 0.0 1030158
09:00+9в510764 0.0 1031428
12:00+13в78520 0.0 10311149
15:00+14в67453 0.0 10301385
18:00+10в37640 0.0 1030107
21:00+8всв411700 0.0 1030225
31 октября, вс
вс3100:00+7в411620 0.0 1030219
03:00+7всв512710 0.0 1029230
05:00+6всв513820 0.0 1028273
08:00+9в613690 0.0 1028515
11:00+14в810490 0.0 1026960
14:00+15в89410 0.0 10241107
17:00+11в612570 0.0 1024389
20:00+10в511717 0.0 1024325